This is the latest recevied weather packets stored in our database for station/object KC3BHK-2. If no packets are shown the sender has not sent any weather packets the latest 10 day(s).
| Time | Temp. | Humidity | Pressure | Rain* | Wind** | Luminosity | Snow |
|---|---|---|---|---|---|---|---|
| 1788570150 | 24.44° C | - | - | 0 mm | 1.34 m/s, 270° | - | - |
| 1788570023 | 24.44° C | - | - | 0 mm | 0 m/s | - | - |
| 1788569715 | 23.33° C | - | - | 0 mm | 0 m/s | - | - |
| 1788569105 | 24.44° C | - | - | 0 mm | 1.34 m/s, 270° | - | - |
| 1788568800 | 23.89° C | - | - | 0 mm | 1.79 m/s, 263° | - | - |
| 1788568191 | 23.89° C | - | - | 0 mm | 3.13 m/s, 273° | - | - |
| 1788567883 | 24.44° C | - | - | 0 mm | 1.79 m/s, 228° | - | - |
| 1788567578 | 24.44° C | - | - | 0 mm | 0.89 m/s, 228° | - | - |
| 1788567273 | 23.89° C | - | - | 0 mm | 0 m/s | - | - |
| 1788566969 | 23.89° C | - | - | 0 mm | 0 m/s | - | - |
| 1788566664 | 25° C | - | - | 0 mm | 0 m/s | - | - |
| 1788566359 | 24.44° C | - | - | 0 mm | 0 m/s | - | - |
| 1788566051 | 25° C | - | - | 0 mm | 0 m/s | - | - |
| 1788565442 | 24.44° C | - | - | 0 mm | 0.89 m/s, 203° | - | - |
| 1788565137 | 25° C | - | - | 0 mm | 0.89 m/s, 218° | - | - |
| 1788564832 | 24.44° C | - | - | 0 mm | 0.89 m/s, 197° | - | - |
| 1788564527 | 25° C | - | - | 0 mm | 1.79 m/s, 228° | - | - |
| 1788564219 | 25° C | - | - | 0 mm | 1.79 m/s, 212° | - | - |
| 1788563915 | 26.11° C | - | - | 0 mm | 2.24 m/s, 245° | - | - |
| 1788562695 | 26.67° C | - | - | 0 mm | 2.24 m/s, 255° | - | - |
| 1788562388 | 26.67° C | - | - | 0 mm | 2.68 m/s, 260° | - | - |
| 1788562083 | 26.67° C | - | - | 0 mm | 1.34 m/s, 267° | - | - |
| 1788561960 | 27.22° C | - | - | 0 mm | 2.24 m/s, 283° | - | - |
| 1788561778 | 26.67° C | - | - | 0 mm | 2.24 m/s, 269° | - | - |
| 1788561474 | 26.67° C | - | - | 0 mm | 2.68 m/s, 226° | - | - |
* Rain latest hour (hover to see other rain measurements)
** Current wind speed in m/s (hover to see current wind gust speed)